sat.trackr.live / text

‹ back to catalog

STARLINK-30889

NORAD 58368 · 2023-177T

PAYLOAD ACTIVE UNKNOWN

§ Identity

Operator
Country
US
Launch date
2023-11-18
Launch site
AFETR
Launch vehicle
Mass (kg)
RCS (m²)

Purposes: comms

External: N2YO · Heavens-Above · Gunter

§ Orbital elements

Epoch: 2026-05-24T20:29:37.710816Z

Period
94.27 min
Inclination
42.9982°
Eccentricity
0.0002640
Mean motion
15.27578092 rev/d
Perigee alt
481.2 km
Apogee alt
484.9 km
Semi-major
6,861.2 km
B*
3.8617e-5
RAAN
280.6496°
Arg perigee
245.7622°
Mean anomaly
114.2954°
Rev number
13,987

§ Raw data

STARLINK-308891 58368U 23177T   26144.85390869  .00000800  00000+0  38617-4 0  99912 58368  42.9982 280.6496 0002640 245.7622 114.2954 15.27578092139871

JSON: /api/v1/satellites/58368 · /tle

For live sub-satellite position, see the globe view (requires WebGL).

§ Visibility from observer

Set your observer location to see the next 7 days of passes ≥ 10°. The values pass through the URL so the page stays shareable.

No JS? Fill the form by hand. The geolocation button needs JavaScript.